[[{"header":{"parameterUnit":"m.s-1","parameterCategory":1,"la1":30.2991,"la2":30.254,"lo1":-89.0895,"lo2":-89.0444,"dy":0.0017,"dx":0.0017,"nx":28,"ny":28,"refTime":"2024-04-24T21:00:00:Z","depth":0,"parameterNumber":2,"parameterNumberName":"U-component_of_WINDS"},"data":[0,0,0,0,0,0,0,0,0,0,0,0,0,0,0,0,0,0,0,0,0,0,0,0,0,0,0,0,0,0,0,0,0,0,0,0,0,0,0,0,0,0,0,0,0,0,0,0,0,0,0,0,0,0,0,0,0,0,-0.4508,-0.4507,0,-0.4366,-0.4364,-0.4363,-0.4276,-0.4275,-0.4275,-0.4275,-0.4128,-0.4125,-0.4122,0,0,0,0,0,0,0,0,0,0,0,0,0,-0.4707,-0.4703,-0.4509,-0.4507,-0.4505,-0.4366,-0.4364,-0.4362,-0.4276,-0.4275,-0.4275,-0.4274,-0.413,-0.4126,-0.4121,0,0,0,0,0,0,0,0,0,0,0,0,0,-0.4598,-0.4702,-0.4509,-0.4445,-0.4438,-0.4367,-0.4364,-0.4362,-0.4276,-0.4275,-0.4275,-0.4274,-0.4131,-0.4126,-0.4121,-0.4102,0,0,-0.4105,-0.4103,0,0,0,0,0,0,0,0,-0.4604,-0.4591,-0.4456,-0.4449,-0.4441,-0.4338,-0.438,-0.4275,-0.4276,-0.4338,-0.4275,-0.4274,-0.4199,-0.4188,-0.4163,-0.4095,-0.4089,-0.4104,-0.4101,-0.4099,-0.4097,0,0,0,0,0,0,0,-0.4612,-0.4597,-0.4452,-0.4454,-0.4445,-0.4424,-0.4408,-0.436,-0.4274,-0.4332,-0.4325,-0.431,-0.4194,-0.4168,-0.4159,-0.4086,-0.4105,-0.41,-0.4097,-0.4095,-0.3997,-0.3998,0,0,0,0,0,0,-0.463,-0.4603,-0.4457,-0.4448,-0.4523,-0.4421,-0.4403,-0.4372,-0.4274,-0.4258,-0.4311,-0.4306,-0.4177,-0.4165,-0.4153,-0.4125,-0.4099,-0.4094,-0.4091,-0.3997,-0.3997,-0.3998,0,0,0,0,0,0,-0.4634,-0.4617,-0.4462,-0.4524,-0.4502,-0.4418,-0.4384,-0.4369,-0.4343,-0.4257,-0.4242,-0.4299,-0.4176,-0.416,-0.4115,-0.4119,-0.4092,-0.4087,-0.3996,-0.3997,-0.3998,-0.4069,0,0,0,0,0,0,-0.464,-0.4619,-0.4611,-0.4524,-0.4499,-0.4427,-0.4384,-0.4367,-0.4334,-0.4327,-0.4243,-0.4228,-0.4174,-0.4124,-0.411,-0.4111,-0.4083,-0.3995,-0.3996,-0.3997,-0.4066,-0.4072,-0.4077,0,0,0,0,0,-0.4648,-0.4636,-0.4611,-0.4594,-0.4487,-0.4427,-0.4413,-0.4352,-0.4334,-0.4326,-0.4271,-0.4231,-0.4121,-0.412,-0.4104,-0.4103,-0.3995,-0.3996,-0.3997,-0.4063,-0.4071,-0.4077,0,0,0,0,0,0,-0.4726,-0.4624,-0.4595,-0.4555,-0.4501,-0.4413,-0.44,-0.4362,-0.4311,-0.4307,-0.4232,-0.4214,-0.4177,-0.4135,-0.4136,-0.408,-0.4053,-0.4051,-0.4109,-0.4115,-0.4121,-0.4132,-0.4079,0,0,0,0,0,-0.4738,-0.4698,-0.4611,-0.4585,-0.4559,-0.4485,-0.4456,-0.4414,-0.4354,-0.4331,-0.4273,-0.4217,-0.417,-0.414,-0.4092,-0.4059,-0.404,-0.4051,-0.4057,-0.4062,-0.4061,-0.4042,-0.4047,-0.4002,-0.4002,-0.4002,0,0,-0.4764,-0.4703,-0.4682,-0.4599,-0.4552,-0.4512,-0.4466,-0.4425,-0.4396,-0.4324,-0.4279,-0.4235,-0.4167,-0.4129,-0.4109,-0.4093,-0.407,-0.4064,-0.4068,-0.4065,-0.4044,-0.4048,-0.4052,-0.4003,-0.4003,-0.4002,0,0,-0.4791,-0.474,-0.4713,-0.4667,-0.4597,-0.4547,-0.4541,-0.4459,-0.4427,-0.438,-0.4326,-0.429,-0.421,-0.4165,-0.4131,-0.4142,-0.4104,-0.4129,-0.4159,-0.4141,-0.4144,-0.4147,-0.4152,-0.4155,-0.4128,-0.4128,-0.4128,0,-0.4831,-0.4769,-0.4704,-0.4667,-0.4633,-0.4567,-0.454,-0.4498,-0.4416,-0.4393,-0.4377,-0.4276,-0.4226,-0.4177,-0.418,-0.4154,-0.4145,-0.4138,-0.4149,-0.4151,-0.4153,-0.4157,-0.4159,-0.4132,-0.4131,-0.4131,-0.4131,0,-0.4824,-0.4782,-0.4768,-0.4691,-0.4654,-0.4623,-0.4553,-0.4524,-0.4486,-0.4438,-0.4392,-0.433,-0.4269,-0.4254,-0.4215,-0.4199,-0.4192,-0.4163,-0.4134,-0.4162,-0.4164,-0.4165,-0.4137,-0.4136,-0.4135,-0.4134,0,0,-0.4895,-0.4782,-0.4779,-0.4743,-0.4661,-0.4627,-0.4593,-0.4533,-0.4511,-0.4456,-0.4426,-0.4361,-0.4334,-0.4296,-0.4252,-0.4237,-0.4251,-0.421,-0.4207,-0.422,-0.4231,-0.4253,-0.4256,-0.4225,-0.4225,-0.4225,-0.4237,0,-0.491,-0.4845,-0.4786,-0.4742,-0.4703,-0.4641,-0.4611,-0.4558,-0.4513,-0.4474,-0.4424,-0.4379,-0.4347,-0.4324,-0.4306,-0.4253,-0.4252,-0.4251,-0.4196,-0.4195,-0.4216,-0.4257,-0.428,-0.4295,-0.4237,-0.4237,-0.4237,0,-0.4919,-0.4867,-0.482,-0.4743,-0.4725,-0.4699,-0.464,-0.4603,-0.4542,-0.451,-0.4469,-0.4423,-0.4384,-0.436,-0.4306,-0.4307,-0.4281,-0.4252,-0.4251,-0.4244,-0.4218,-0.4252,-0.4298,-0.43,-0.4238,-0.4238,-0.4238,0,-0.4977,-0.4896,-0.4857,-0.4829,-0.4738,-0.4721,-0.4682,-0.462,-0.4589,-0.4538,-0.4516,-0.4461,-0.4431,-0.439,-0.4331,-0.4318,-0.4284,-0.4254,-0.4257,-0.4259,-0.4253,-0.4254,-0.4296,-0.4235,-0.4235,-0.4235,-0.4235,0,-0.5,-0.4974,-0.4882,-0.4859,-0.4828,-0.4761,-0.4732,-0.4688,-0.4634,-0.4601,-0.4544,-0.4515,-0.4437,-0.4399,-0.4352,-0.4315,-0.4302,-0.4276,-0.4264,-0.4281,-0.4285,-0.4264,-0.4261,-0.4236,-0.4236,-0.4236,-0.4236,0,-0.506,-0.4997,-0.4951,-0.4869,-0.4848,-0.4829,-0.4759,-0.4734,-0.4686,-0.4646,-0.4632,-0.4557,-0.4509,-0.4446,-0.4378,-0.4346,-0.4316,-0.4296,-0.4337,-0.433,-0.4336,-0.4337,-0.4367,-0.4368,-0.4307,-0.4307,-0.4308,0,-0.5079,-0.5057,-0.4973,-0.4947,-0.491,-0.4869,-0.4837,-0.477,-0.4739,-0.4668,-0.4652,-0.46,-0.4554,-0.4481,-0.442,-0.4368,-0.4348,-0.4362,-0.4339,-0.4358,-0.4349,-0.4351,-0.4349,-0.4367,-0.4368,-0.4369,-0.437,0,-0.512,-0.5091,-0.5046,-0.4991,-0.4954,-0.4908,-0.4859,-0.4841,-0.4764,-0.4732,-0.4682,-0.4647,-0.4578,-0.4527,-0.4467,-0.4427,-0.4386,-0.4377,-0.4375,-0.4393,-0.4418,-0.4406,-0.4352,-0.4377,-0.4376,-0.4376,-0.4375,-0.4375,-0.5161,-0.5139,-0.5077,-0.5029,-0.4986,-0.4941,-0.4914,-0.4864,-0.4821,-0.476,-0.4723,-0.4675,-0.4615,-0.4531,-0.4493,-0.4455,-0.4439,-0.4436,-0.4435,-0.4436,-0.4442,-0.4424,-0.4444,-0.4443,-0.4443,-0.4443,-0.4443,0,-0.52,-0.5157,-0.5114,-0.5047,-0.501,-0.4975,-0.4919,-0.4891,-0.4849,-0.4797,-0.4754,-0.4697,-0.4648,-0.4584,-0.4531,-0.4513,-0.4492,-0.4501,-0.4502,-0.4493,-0.4459,-0.4466,-0.4518,-0.4518,-0.4518,-0.4518,-0.4518,-0.4518,-0.5216,-0.5178,-0.5141,-0.5082,-0.5038,-0.4991,-0.4963,-0.4922,-0.488,-0.482,-0.4779,-0.4737,-0.4681,-0.4623,-0.4576,-0.4559,-0.4542,-0.4556,-0.4533,-0.4502,-0.4496,-0.4489,-0.4496,-0.4553,-0.4553,-0.4571,-0.4571,-0.4571]},{"header":{"parameterUnit":"m.s-1","parameterCategory":1,"la1":30.2991,"la2":30.254,"lo1":-89.0895,"lo2":-89.0444,"dy":0.0017,"dx":0.0017,"nx":28,"ny":28,"refTime":"2024-04-24T21:00:00:Z","depth":0,"parameterNumber":3,"parameterNumberName":"V-component_of_WINDS"},"data":[0,0,0,0,0,0,0,0,0,0,0,0,0,0,0,0,0,0,0,0,0,0,0,0,0,0,0,0,0,0,0,0,0,0,0,0,0,0,0,0,0,0,0,0,0,0,0,0,0,0,0,0,0,0,0,0,0,0,3.7788,3.7787,0,3.7747,3.7747,3.7746,3.7701,3.77,3.7699,3.7699,3.7654,3.7653,3.7653,0,0,0,0,0,0,0,0,0,0,0,0,0,3.7824,3.7824,3.7788,3.7787,3.7787,3.7747,3.7747,3.7746,3.7701,3.77,3.7699,3.7698,3.7654,3.7653,3.7653,0,0,0,0,0,0,0,0,0,0,0,0,0,3.7798,3.7824,3.7788,3.776,3.7757,3.7747,3.7747,3.7746,3.7701,3.77,3.7699,3.7698,3.7654,3.7653,3.7653,3.7667,0,0,3.765,3.765,0,0,0,0,0,0,0,0,3.78,3.7797,3.7764,3.7761,3.7758,3.7728,3.7743,3.7719,3.7701,3.7722,3.7699,3.7697,3.7679,3.7676,3.7671,3.7665,3.7663,3.765,3.7649,3.7649,3.7649,0,0,0,0,0,0,0,3.7802,3.7799,3.7772,3.7764,3.776,3.7748,3.7743,3.7738,3.7706,3.772,3.7717,3.7713,3.7677,3.7671,3.7669,3.7662,3.765,3.7649,3.7649,3.7648,3.7666,3.7667,0,0,0,0,0,0,3.7808,3.78,3.7773,3.777,3.7777,3.7748,3.7743,3.7739,3.7706,3.7701,3.7713,3.7711,3.7673,3.767,3.7667,3.7682,3.7649,3.7648,3.7648,3.7665,3.7667,3.7668,0,0,0,0,0,0,3.7809,3.7806,3.7775,3.7784,3.778,3.7749,3.7744,3.7738,3.7733,3.7701,3.7695,3.7714,3.7673,3.7669,3.7668,3.768,3.7648,3.7647,3.7664,3.7666,3.7667,3.7712,0,0,0,0,0,0,3.781,3.7807,3.7813,3.7785,3.7779,3.7776,3.7745,3.7738,3.7732,3.7727,3.77,3.7694,3.7671,3.7669,3.7667,3.7678,3.7646,3.7663,3.7665,3.7667,3.7709,3.7715,3.772,0,0,0,0,0,3.7812,3.7826,3.7813,3.781,3.7786,3.7777,3.7774,3.7748,3.7733,3.7738,3.7718,3.7695,3.7679,3.767,3.7666,3.7678,3.7662,3.7664,3.7666,3.7707,3.7714,3.772,0,0,0,0,0,0,3.7855,3.7822,3.7807,3.7813,3.7798,3.777,3.7775,3.7756,3.7744,3.7741,3.7708,3.7703,3.7705,3.7691,3.7681,3.769,3.7667,3.7669,3.7699,3.7705,3.771,3.7714,3.7646,0,0,0,0,0,3.7865,3.7862,3.7833,3.7841,3.7834,3.7806,3.7801,3.7783,3.7766,3.7759,3.7739,3.7723,3.7714,3.7709,3.7699,3.7707,3.77,3.7713,3.7719,3.7723,3.7725,3.7728,3.7733,3.7675,3.7675,3.7675,0,0,3.7886,3.7868,3.7867,3.7849,3.7835,3.7832,3.7801,3.7799,3.7796,3.7758,3.7757,3.7742,3.7721,3.7725,3.7725,3.7713,3.7739,3.7726,3.773,3.7729,3.7731,3.7736,3.7741,3.7677,3.7676,3.7676,0,0,3.7922,3.7908,3.7914,3.7901,3.7881,3.7863,3.7864,3.7838,3.7827,3.7825,3.7797,3.7793,3.7778,3.7765,3.7756,3.7789,3.7767,3.7786,3.7813,3.7817,3.7821,3.7825,3.7836,3.7841,3.7788,3.7788,3.7788,0,3.7951,3.7945,3.7918,3.7918,3.7911,3.7878,3.7883,3.7872,3.7849,3.7845,3.7832,3.7813,3.7797,3.7797,3.7806,3.78,3.78,3.7789,3.7823,3.7826,3.783,3.784,3.7845,3.7791,3.779,3.779,3.779,0,3.7981,3.7977,3.7984,3.7964,3.7958,3.796,3.7933,3.7929,3.7912,3.7894,3.7892,3.7872,3.7858,3.7856,3.7839,3.7854,3.7847,3.7829,3.7805,3.7838,3.7847,3.7851,3.7794,3.7793,3.7793,3.7792,0,0,3.8042,3.8009,3.8012,3.8003,3.7979,3.7975,3.7976,3.7963,3.796,3.7946,3.7946,3.7935,3.7918,3.7908,3.7888,3.7892,3.7918,3.7873,3.7872,3.7882,3.7934,3.7948,3.7953,3.7904,3.7905,3.7906,3.7936,0,3.8074,3.8074,3.805,3.8057,3.8053,3.8023,3.8023,3.8008,3.7992,3.7986,3.7967,3.796,3.7939,3.7933,3.7935,3.7915,3.7928,3.7912,3.7903,3.7903,3.7909,3.7958,3.7972,3.8002,3.7939,3.794,3.794,0,3.8111,3.8101,3.8107,3.8083,3.8081,3.8082,3.8068,3.8063,3.8046,3.8034,3.8023,3.8002,3.8,3.7978,3.7975,3.7964,3.7959,3.7949,3.7949,3.7947,3.7923,3.7957,3.8011,3.8015,3.7946,3.7945,3.7945,0,3.8156,3.8143,3.8145,3.8138,3.8111,3.8112,3.81,3.8082,3.8076,3.8064,3.8059,3.8047,3.804,3.803,3.8006,3.7992,3.8005,3.7981,3.7994,3.7995,3.7998,3.7998,3.8052,3.7995,3.7995,3.7995,3.7995,0,3.8193,3.8198,3.8164,3.8166,3.817,3.8143,3.8148,3.8133,3.8117,3.8115,3.8087,3.8085,3.8052,3.8047,3.8027,3.8027,3.8024,3.8014,3.8009,3.8016,3.8018,3.8012,3.8009,3.7996,3.7996,3.7996,3.7996,0,3.8243,3.8221,3.8221,3.8196,3.8189,3.8194,3.8172,3.8171,3.8154,3.8151,3.8149,3.8121,3.8113,3.8087,3.8072,3.8059,3.8065,3.8055,3.8071,3.8068,3.8082,3.8081,3.8134,3.8139,3.808,3.808,3.8081,0,3.8269,3.8272,3.8248,3.8245,3.8235,3.823,3.8224,3.8197,3.8191,3.8172,3.8174,3.8164,3.8154,3.8142,3.812,3.8108,3.8098,3.8117,3.8096,3.8104,3.8098,3.8098,3.8098,3.8122,3.8122,3.8123,3.8124,0,3.8317,3.8306,3.8299,3.8288,3.8282,3.8272,3.826,3.8259,3.8229,3.8224,3.8216,3.8209,3.8194,3.8184,3.8169,3.8156,3.8135,3.8131,3.8133,3.8141,3.815,3.8145,3.8084,3.8129,3.8129,3.8128,3.8128,3.8128,3.8355,3.8357,3.834,3.8333,3.8322,3.8312,3.831,3.8293,3.8286,3.8273,3.8257,3.8251,3.8233,3.8211,3.82,3.8194,3.8183,3.8186,3.8187,3.8188,3.8192,3.8152,3.8191,3.8191,3.8191,3.819,3.819,0,3.8402,3.839,3.8384,3.8369,3.8363,3.8345,3.8331,3.8328,3.8323,3.8309,3.83,3.8291,3.8281,3.8259,3.8247,3.8246,3.8236,3.8244,3.8244,3.8241,3.8203,3.8202,3.8252,3.8252,3.8252,3.8252,3.8252,3.8252,3.8425,3.8427,3.8414,3.841,3.8397,3.8392,3.8386,3.8376,3.8365,3.8356,3.8348,3.8334,3.8316,3.8303,3.8293,3.8287,3.8284,3.8295,3.8285,3.825,3.8244,3.8238,3.8237,3.8294,3.8294,3.8324,3.8324,3.8324]}]]